Time,TemperatureF,DewpointF,PressureIn,WindDirection,WindDirectionDegrees,WindSpeedMPH,WindSpeedGustMPH,Humidity,HourlyPrecipIn,Conditions,Clouds,dailyrainin,SolarRadiationWatts/m^2,SoftwareType,DateUTC
2013-01-27 00:00:00,24.0,12.9,30.08,SSE,158,4.0,12.0,62,0.00,,---,0.00,0.00,VWS V14.00,2013-01-27 06:00:00,
2013-01-27 00:01:00,24.0,13.6,30.07,SSW,202,7.0,7.0,64,0.00,,---,0.00,0.00,VWS V14.00,2013-01-27 06:01:00,
2013-01-27 00:05:00,24.0,12.9,30.08,East,90,8.0,14.0,62,0.00,,---,0.00,0.00,VWS V14.00,2013-01-27 06:05:00,
2013-01-27 00:06:00,24.0,13.6,30.07,SSW,202,5.0,5.0,64,0.00,,---,0.00,0.00,VWS V14.00,2013-01-27 06:06:00,
2013-01-27 00:10:00,24.0,12.9,30.08,SW,225,5.0,13.0,62,0.00,,---,0.00,0.00,VWS V14.00,2013-01-27 06:10:00,
2013-01-27 00:11:00,24.0,13.6,30.07,North,0,7.0,7.0,64,0.00,,---,0.00,0.00,VWS V14.00,2013-01-27 06:11:00,
2013-01-27 00:15:00,24.0,12.9,30.08,SE,135,11.0,13.0,62,0.00,,---,0.00,0.00,VWS V14.00,2013-01-27 06:15:00,
2013-01-27 00:16:00,24.0,13.6,30.07,North,0,3.0,9.0,64,0.00,,---,0.00,0.00,VWS V14.00,2013-01-27 06:16:00,
2013-01-27 00:20:00,24.0,12.9,30.09,SSE,158,5.0,11.0,62,0.00,,---,0.00,0.00,VWS V14.00,2013-01-27 06:20:00,
2013-01-27 00:21:00,24.0,13.6,30.07,SSE,158,4.0,6.0,64,0.00,,---,0.00,0.00,VWS V14.00,2013-01-27 06:21:00,
2013-01-27 00:25:00,24.0,12.9,30.08,ENE,68,3.0,13.0,62,0.00,,---,0.00,0.00,VWS V14.00,2013-01-27 06:25:00,
2013-01-27 00:26:00,24.0,13.6,30.07,ENE,68,4.0,6.0,64,0.00,,---,0.00,0.00,VWS V14.00,2013-01-27 06:26:00,
2013-01-27 00:30:00,24.0,12.9,30.08,East,90,4.0,11.0,62,0.00,,---,0.00,0.00,VWS V14.00,2013-01-27 06:30:00,
2013-01-27 00:31:00,24.0,13.6,30.07,ESE,112,5.0,5.0,64,0.00,,---,0.00,0.00,VWS V14.00,2013-01-27 06:31:00,
2013-01-27 00:35:00,24.0,12.9,30.08,SE,135,5.0,10.0,62,0.00,,---,0.00,0.00,VWS V14.00,2013-01-27 06:35:00,
2013-01-27 00:36:00,24.0,13.6,30.07,SE,135,3.0,5.0,64,0.00,,---,0.00,0.00,VWS V14.00,2013-01-27 06:36:00,
2013-01-27 00:40:00,24.0,12.9,30.08,East,90,5.0,13.0,62,0.00,,---,0.00,0.00,VWS V14.00,2013-01-27 06:40:00,
2013-01-27 00:41:00,24.0,14.0,30.07,ENE,68,5.0,7.0,65,0.00,,---,0.00,0.00,VWS V14.00,2013-01-27 06:41:00,
2013-01-27 00:45:00,24.0,13.2,30.08,East,90,6.0,12.0,63,0.00,,---,0.00,0.00,VWS V14.00,2013-01-27 06:45:00,
2013-01-27 00:46:00,24.0,13.6,30.06,NNE,22,4.0,5.0,64,0.00,,---,0.00,0.00,VWS V14.00,2013-01-27 06:46:00,
2013-01-27 00:50:00,24.0,13.2,30.07,SE,135,5.0,12.0,63,0.00,,---,0.00,0.00,VWS V14.00,2013-01-27 06:50:00,
2013-01-27 00:51:00,24.0,14.0,30.06,SE,135,4.0,9.0,65,0.00,,---,0.00,0.00,VWS V14.00,2013-01-27 06:51:00,
2013-01-27 00:55:00,24.0,13.2,30.08,ESE,112,6.0,11.0,63,0.00,,---,0.00,0.00,VWS V14.00,2013-01-27 06:55:00,
2013-01-27 00:56:00,24.0,14.0,30.06,NNE,22,5.0,7.0,65,0.00,,---,0.00,0.00,VWS V14.00,2013-01-27 06:56:00,
2013-01-27 01:00:00,24.0,13.2,30.07,ESE,112,9.0,14.0,63,0.00,,---,0.00,0.00,VWS V14.00,2013-01-27 07:00:00,
2013-01-27 01:01:00,24.0,14.0,30.06,SE,135,4.0,5.0,65,0.00,,---,0.00,0.00,VWS V14.00,2013-01-27 07:01:00,
2013-01-27 01:05:00,24.0,13.6,30.07,NNW,338,5.0,14.0,64,0.00,,---,0.00,0.00,VWS V14.00,2013-01-27 07:05:00,
2013-01-27 01:06:00,24.0,14.0,30.05,ESE,112,2.0,5.0,65,0.00,,---,0.00,0.00,VWS V14.00,2013-01-27 07:06:00,
2013-01-27 01:10:00,24.0,13.6,30.07,SE,135,4.0,12.0,64,0.00,,---,0.00,0.00,VWS V14.00,2013-01-27 07:10:00,
2013-01-27 01:13:00,24.0,14.0,30.05,SSW,202,4.0,9.0,65,0.00,,---,0.00,0.00,VWS V14.00,2013-01-27 07:13:00,
2013-01-27 01:15:00,24.0,13.6,30.07,North,0,3.0,11.0,64,0.00,,---,0.00,0.00,VWS V14.00,2013-01-27 07:15:00,
2013-01-27 01:18:00,24.0,14.0,30.05,West,270,5.0,7.0,65,0.00,,---,0.00,0.00,VWS V14.00,2013-01-27 07:18:00,
2013-01-27 01:20:00,24.0,13.6,30.07,SW,225,9.0,11.0,64,0.00,,---,0.00,0.00,VWS V14.00,2013-01-27 07:20:00,
2013-01-27 01:23:00,24.0,14.0,30.05,East,90,4.0,7.0,65,0.00,,---,0.00,0.00,VWS V14.00,2013-01-27 07:23:00,
2013-01-27 01:25:00,24.0,13.6,30.07,ESE,112,6.0,10.0,64,0.00,,---,0.00,0.00,VWS V14.00,2013-01-27 07:25:00,
2013-01-27 01:28:00,25.0,14.9,30.05,ENE,68,4.0,11.0,65,0.00,,---,0.00,0.00,VWS V14.00,2013-01-27 07:28:00,
2013-01-27 01:30:00,24.0,13.6,30.07,South,180,3.0,8.0,64,0.00,,---,0.00,0.00,VWS V14.00,2013-01-27 07:30:00,
2013-01-27 01:33:00,25.0,14.9,30.05,South,180,3.0,6.0,65,0.00,,---,0.00,0.00,VWS V14.00,2013-01-27 07:33:00,
2013-01-27 01:35:00,24.0,13.6,30.07,ENE,68,3.0,7.0,64,0.00,,---,0.00,0.00,VWS V14.00,2013-01-27 07:35:00,
2013-01-27 01:38:00,25.0,14.9,30.05,SE,135,5.0,9.0,65,0.00,,---,0.00,0.00,VWS V14.00,2013-01-27 07:38:00,
2013-01-27 01:40:00,24.0,13.6,30.07,SE,135,3.0,8.0,64,0.00,,---,0.00,0.00,VWS V14.00,2013-01-27 07:40:00,
2013-01-27 01:43:00,25.0,14.9,30.05,WSW,248,5.0,13.0,65,0.00,,---,0.00,0.00,VWS V14.00,2013-01-27 07:43:00,
2013-01-27 01:45:00,24.0,14.0,30.07,ESE,112,3.0,8.0,65,0.00,,---,0.00,0.00,VWS V14.00,2013-01-27 07:45:00,
2013-01-27 01:48:00,25.0,14.9,30.05,NE,45,4.0,6.0,65,0.00,,---,0.00,0.00,VWS V14.00,2013-01-27 07:48:00,
2013-01-27 01:50:00,24.0,13.6,30.06,East,90,5.0,10.0,64,0.00,,---,0.00,0.00,VWS V14.00,2013-01-27 07:50:00,
2013-01-27 01:53:00,25.0,14.9,30.05,WSW,248,4.0,10.0,65,0.00,,---,0.00,0.00,VWS V14.00,2013-01-27 07:53:00,
2013-01-27 01:55:00,24.0,14.0,30.06,SE,135,6.0,12.0,65,0.00,,---,0.00,0.00,VWS V14.00,2013-01-27 07:55:00,
2013-01-27 01:58:00,25.0,14.9,30.05,SE,135,4.0,6.0,65,0.00,,---,0.00,0.00,VWS V14.00,2013-01-27 07:58:00,
2013-01-27 02:00:00,24.0,14.0,30.06,ESE,112,2.0,13.0,65,0.00,,---,0.00,0.00,VWS V14.00,2013-01-27 08:00:00,
2013-01-27 02:03:00,25.0,14.6,30.05,ESE,112,5.0,9.0,64,0.00,,---,0.00,0.00,VWS V14.00,2013-01-27 08:03:00,
2013-01-27 02:05:00,24.0,14.0,30.06,East,90,4.0,9.0,65,0.00,,---,0.00,0.00,VWS V14.00,2013-01-27 08:05:00,
2013-01-27 02:08:00,25.0,14.6,30.05,SE,135,2.0,8.0,64,0.00,,---,0.00,0.00,VWS V14.00,2013-01-27 08:08:00,
2013-01-27 02:10:00,24.0,14.0,30.06,ESE,112,5.0,13.0,65,0.00,,---,0.00,0.00,VWS V14.00,2013-01-27 08:10:00,
2013-01-27 02:13:00,25.0,14.6,30.05,ESE,112,4.0,8.0,64,0.00,,---,0.00,0.00,VWS V14.00,2013-01-27 08:13:00,
2013-01-27 02:15:00,24.0,14.0,30.05,SW,225,3.0,9.0,65,0.00,,---,0.00,0.00,VWS V14.00,2013-01-27 08:15:00,
2013-01-27 02:18:00,25.0,14.6,30.05,NNE,22,2.0,9.0,64,0.00,,---,0.00,0.00,VWS V14.00,2013-01-27 08:18:00,
2013-01-27 02:20:00,24.0,14.0,30.05,SSE,158,3.0,9.0,65,0.00,,---,0.00,0.00,VWS V14.00,2013-01-27 08:20:00,
2013-01-27 02:23:00,25.0,14.6,30.05,ENE,68,3.0,9.0,64,0.00,,---,0.00,0.00,VWS V14.00,2013-01-27 08:23:00,
2013-01-27 02:25:00,24.0,14.0,30.05,West,270,4.0,10.0,65,0.00,,---,0.00,0.00,VWS V14.00,2013-01-27 08:25:00,
2013-01-27 02:28:00,25.0,14.6,30.05,SE,135,5.0,11.0,64,0.00,,---,0.00,0.00,VWS V14.00,2013-01-27 08:28:00,
2013-01-27 02:30:00,24.0,14.0,30.05,SSE,158,3.0,13.0,65,0.00,,---,0.00,0.00,VWS V14.00,2013-01-27 08:30:00,
2013-01-27 02:33:00,25.0,14.6,30.05,ENE,68,4.0,11.0,64,0.00,,---,0.00,0.00,VWS V14.00,2013-01-27 08:33:00,
2013-01-27 02:35:00,25.0,14.9,30.05,SE,135,6.0,11.0,65,0.00,,---,0.00,0.00,VWS V14.00,2013-01-27 08:35:00,
2013-01-27 02:38:00,25.0,14.6,30.04,South,180,4.0,7.0,64,0.00,,---,0.00,0.00,VWS V14.00,2013-01-27 08:38:00,
2013-01-27 02:40:00,25.0,14.9,30.05,ESE,112,4.0,11.0,65,0.00,,---,0.00,0.00,VWS V14.00,2013-01-27 08:40:00,
2013-01-27 02:43:00,25.0,14.6,30.04,ENE,68,4.0,9.0,64,0.00,,---,0.00,0.00,VWS V14.00,2013-01-27 08:43:00,
2013-01-27 02:45:00,25.0,14.9,30.05,SE,135,4.0,13.0,65,0.00,,---,0.00,0.00,VWS V14.00,2013-01-27 08:45:00,
2013-01-27 02:48:00,25.0,14.9,30.04,ESE,112,3.0,7.0,65,0.00,,---,0.00,0.00,VWS V14.00,2013-01-27 08:48:00,
2013-01-27 02:50:00,25.0,14.9,30.05,NNE,22,4.0,13.0,65,0.00,,---,0.00,0.00,VWS V14.00,2013-01-27 08:50:00,
2013-01-27 02:53:00,25.0,14.9,30.04,ESE,112,3.0,7.0,65,0.00,,---,0.00,0.00,VWS V14.00,2013-01-27 08:53:00,
2013-01-27 02:55:00,25.0,14.9,30.05,SW,225,10.0,10.0,65,0.00,,---,0.00,0.00,VWS V14.00,2013-01-27 08:55:00,
2013-01-27 02:58:00,25.0,14.9,30.04,WNW,292,2.0,7.0,65,0.00,,---,0.00,0.00,VWS V14.00,2013-01-27 08:58:00,
2013-01-27 03:00:00,25.0,14.9,30.05,WNW,292,3.0,10.0,65,0.00,,---,0.00,0.00,VWS V14.00,2013-01-27 09:00:00,
2013-01-27 03:03:00,25.0,14.9,30.03,East,90,2.0,8.0,65,0.00,,---,0.00,0.00,VWS V14.00,2013-01-27 09:03:00,
2013-01-27 03:05:00,25.0,14.6,30.05,SE,135,6.0,8.0,64,0.00,,---,0.00,0.00,VWS V14.00,2013-01-27 09:05:00,
2013-01-27 03:08:00,25.0,14.9,30.03,SE,135,4.0,8.0,65,0.00,,---,0.00,0.00,VWS V14.00,2013-01-27 09:08:00,
2013-01-27 03:10:00,25.0,14.6,30.05,NW,315,5.0,9.0,64,0.00,,---,0.00,0.00,VWS V14.00,2013-01-27 09:10:00,
2013-01-27 03:13:00,25.0,14.9,30.03,SE,135,4.0,11.0,65,0.00,,---,0.00,0.00,VWS V14.00,2013-01-27 09:13:00,
2013-01-27 03:15:00,25.0,14.6,30.05,NNE,22,6.0,8.0,64,0.00,,---,0.00,0.00,VWS V14.00,2013-01-27 09:15:00,
2013-01-27 03:18:00,25.0,14.9,30.03,ESE,112,7.0,10.0,65,0.00,,---,0.00,0.00,VWS V14.00,2013-01-27 09:18:00,
2013-01-27 03:20:00,25.0,14.6,30.05,South,180,3.0,10.0,64,0.00,,---,0.00,0.00,VWS V14.00,2013-01-27 09:20:00,
2013-01-27 03:23:00,25.0,15.3,30.03,ESE,112,4.0,8.0,66,0.00,,---,0.00,0.00,VWS V14.00,2013-01-27 09:23:00,
2013-01-27 03:25:00,25.0,14.6,30.05,NW,315,4.0,9.0,64,0.00,,---,0.00,0.00,VWS V14.00,2013-01-27 09:25:00,
2013-01-27 03:28:00,25.0,15.3,30.02,SE,135,5.0,10.0,66,0.00,,---,0.00,0.00,VWS V14.00,2013-01-27 09:28:00,
2013-01-27 03:30:00,25.0,14.6,30.05,North,0,4.0,9.0,64,0.00,,---,0.00,0.00,VWS V14.00,2013-01-27 09:30:00,
2013-01-27 03:33:00,25.0,15.3,30.02,NE,45,2.0,7.0,66,0.00,,---,0.00,0.00,VWS V14.00,2013-01-27 09:33:00,
2013-01-27 03:35:00,25.0,14.6,30.05,SE,135,5.0,11.0,64,0.00,,---,0.00,0.00,VWS V14.00,2013-01-27 09:35:00,
2013-01-27 03:38:00,25.0,15.3,30.02,NE,45,2.0,8.0,66,0.00,,---,0.00,0.00,VWS V14.00,2013-01-27 09:38:00,
2013-01-27 03:40:00,25.0,14.6,30.05,SE,135,3.0,11.0,64,0.00,,---,0.00,0.00,VWS V14.00,2013-01-27 09:40:00,
2013-01-27 03:43:00,25.0,15.3,30.01,SE,135,5.0,9.0,66,0.00,,---,0.00,0.00,VWS V14.00,2013-01-27 09:43:00,
2013-01-27 03:45:00,25.0,14.6,30.04,SSW,202,3.0,7.0,64,0.00,,---,0.00,0.00,VWS V14.00,2013-01-27 09:45:00,
2013-01-27 03:48:00,25.0,15.3,30.01,ESE,112,5.0,8.0,66,0.00,,---,0.00,0.00,VWS V14.00,2013-01-27 09:48:00,
2013-01-27 03:50:00,25.0,14.9,30.04,NE,45,4.0,9.0,65,0.00,,---,0.00,0.00,VWS V14.00,2013-01-27 09:50:00,
2013-01-27 03:53:00,25.0,15.3,30.01,ESE,112,7.0,8.0,66,0.00,,---,0.00,0.00,VWS V14.00,2013-01-27 09:53:00,
2013-01-27 03:55:00,25.0,14.9,30.04,SE,135,3.0,7.0,65,0.00,,---,0.00,0.00,VWS V14.00,2013-01-27 09:55:00,
2013-01-27 03:58:00,25.0,15.3,30.01,SE,135,4.0,10.0,66,0.00,,---,0.00,0.00,VWS V14.00,2013-01-27 09:58:00,
2013-01-27 04:00:00,25.0,14.9,30.04,SE,135,3.0,7.0,65,0.00,,---,0.00,0.00,VWS V14.00,2013-01-27 10:00:00,
2013-01-27 04:03:00,25.0,15.3,30.00,South,180,4.0,9.0,66,0.00,,---,0.00,0.00,VWS V14.00,2013-01-27 10:03:00,
2013-01-27 04:05:00,25.0,14.9,30.04,South,180,3.0,9.0,65,0.00,,---,0.00,0.00,VWS V14.00,2013-01-27 10:05:00,
2013-01-27 04:08:00,26.0,16.2,30.00,NE,45,3.0,10.0,66,0.00,,---,0.00,0.00,VWS V14.00,2013-01-27 10:08:00,
2013-01-27 04:10:00,25.0,14.9,30.03,SE,135,3.0,8.0,65,0.00,,---,0.00,0.00,VWS V14.00,2013-01-27 10:10:00,
2013-01-27 04:13:00,26.0,16.2,30.00,SE,135,4.0,11.0,66,0.00,,---,0.00,0.00,VWS V14.00,2013-01-27 10:13:00,
2013-01-27 04:15:00,25.0,14.9,30.03,SSE,158,4.0,8.0,65,0.00,,---,0.00,0.00,VWS V14.00,2013-01-27 10:15:00,
2013-01-27 04:18:00,26.0,16.2,30.00,ESE,112,5.0,10.0,66,0.00,,---,0.00,0.00,VWS V14.00,2013-01-27 10:18:00,
2013-01-27 04:20:00,25.0,14.9,30.03,SSE,158,5.0,11.0,65,0.00,,---,0.00,0.00,VWS V14.00,2013-01-27 10:20:00,
2013-01-27 04:23:00,26.0,16.2,29.99,NE,45,4.0,9.0,66,0.00,,---,0.00,0.00,VWS V14.00,2013-01-27 10:23:00,
2013-01-27 04:25:00,25.0,15.3,30.03,ENE,68,3.0,10.0,66,0.00,,---,0.00,0.00,VWS V14.00,2013-01-27 10:25:00,
2013-01-27 04:27:00,26.0,15.9,29.99,North,0,7.0,9.0,65,0.00,,---,0.00,0.00,VWS V14.00,2013-01-27 10:27:00,
2013-01-27 04:30:00,25.0,15.3,30.02,ENE,68,2.0,8.0,66,0.00,,---,0.00,0.00,VWS V14.00,2013-01-27 10:30:00,
2013-01-27 04:32:00,26.0,15.9,29.99,SW,225,4.0,10.0,65,0.00,,---,0.00,0.00,VWS V14.00,2013-01-27 10:32:00,
2013-01-27 04:35:00,25.0,15.3,30.02,SE,135,7.0,10.0,66,0.00,,---,0.00,0.00,VWS V14.00,2013-01-27 10:35:00,
2013-01-27 04:37:00,26.0,15.9,29.99,NW,315,6.0,8.0,65,0.00,,---,0.00,0.00,VWS V14.00,2013-01-27 10:37:00,
2013-01-27 04:40:00,25.0,15.3,30.02,East,90,4.0,7.0,66,0.00,,---,0.00,0.00,VWS V14.00,2013-01-27 10:40:00,
2013-01-27 04:42:00,26.0,15.9,29.99,SE,135,9.0,12.0,65,0.00,,---,0.00,0.00,VWS V14.00,2013-01-27 10:42:00,
2013-01-27 04:45:00,25.0,15.3,30.01,ESE,112,3.0,8.0,66,0.00,,---,0.00,0.00,VWS V14.00,2013-01-27 10:45:00,
2013-01-27 04:47:00,27.0,16.8,29.99,East,90,5.0,10.0,65,0.00,,---,0.00,0.00,VWS V14.00,2013-01-27 10:47:00,
2013-01-27 04:50:00,25.0,15.3,30.01,SSE,158,4.0,9.0,66,0.00,,---,0.00,0.00,VWS V14.00,2013-01-27 10:50:00,
2013-01-27 04:52:00,27.0,16.8,29.98,ESE,112,5.0,12.0,65,0.00,,---,0.00,0.00,VWS V14.00,2013-01-27 10:52:00,
2013-01-27 04:55:00,25.0,15.3,30.01,ESE,112,4.0,8.0,66,0.00,,---,0.00,0.00,VWS V14.00,2013-01-27 10:55:00,
2013-01-27 04:57:00,27.0,16.8,29.99,SE,135,7.0,10.0,65,0.00,,---,0.00,0.00,VWS V14.00,2013-01-27 10:57:00,
2013-01-27 05:00:00,25.0,15.3,30.01,East,90,3.0,8.0,66,0.00,,---,0.00,0.00,VWS V14.00,2013-01-27 11:00:00,
2013-01-27 05:02:00,27.0,16.8,29.98,SE,135,3.0,7.0,65,0.00,,---,0.00,0.00,VWS V14.00,2013-01-27 11:02:00,
2013-01-27 05:05:00,25.0,15.3,30.00,South,180,3.0,12.0,66,0.00,,---,0.00,0.00,VWS V14.00,2013-01-27 11:05:00,
2013-01-27 05:07:00,27.0,16.8,29.98,East,90,4.0,9.0,65,0.00,,---,0.00,0.00,VWS V14.00,2013-01-27 11:07:00,
2013-01-27 05:10:00,26.0,16.2,30.00,ENE,68,3.0,9.0,66,0.00,,---,0.00,0.00,VWS V14.00,2013-01-27 11:10:00,
2013-01-27 05:12:00,27.0,16.8,29.98,SSE,158,6.0,10.0,65,0.00,,---,0.00,0.00,VWS V14.00,2013-01-27 11:12:00,
2013-01-27 05:15:00,26.0,16.2,30.00,North,0,4.0,11.0,66,0.00,,---,0.00,0.00,VWS V14.00,2013-01-27 11:15:00,
2013-01-27 05:17:00,27.0,16.8,29.98,North,0,7.0,10.0,65,0.00,,---,0.00,0.00,VWS V14.00,2013-01-27 11:17:00,
2013-01-27 05:20:00,26.0,16.2,30.00,East,90,6.0,11.0,66,0.00,,---,0.00,0.00,VWS V14.00,2013-01-27 11:20:00,
2013-01-27 05:22:00,27.0,16.8,29.98,SSE,158,4.0,7.0,65,0.00,,---,0.00,0.00,VWS V14.00,2013-01-27 11:22:00,
2013-01-27 05:25:00,26.0,16.2,29.99,SW,225,5.0,11.0,66,0.00,,---,0.00,0.00,VWS V14.00,2013-01-27 11:25:00,
2013-01-27 05:27:00,27.0,16.8,29.98,NNE,22,3.0,8.0,65,0.00,,---,0.00,0.00,VWS V14.00,2013-01-27 11:27:00,
2013-01-27 05:30:00,26.0,16.2,29.99,SE,135,5.0,9.0,66,0.00,,---,0.00,0.00,VWS V14.00,2013-01-27 11:30:00,
2013-01-27 05:32:00,27.0,16.8,29.98,SW,225,3.0,9.0,65,0.00,,---,0.00,0.00,VWS V14.00,2013-01-27 11:32:00,
2013-01-27 05:35:00,26.0,15.9,29.99,WNW,292,4.0,10.0,65,0.00,,---,0.00,0.00,VWS V14.00,2013-01-27 11:35:00,
2013-01-27 05:37:00,28.0,17.8,29.98,SSE,158,4.0,8.0,65,0.00,,---,0.00,0.00,VWS V14.00,2013-01-27 11:37:00,
2013-01-27 05:40:00,26.0,15.9,29.99,SSE,158,3.0,12.0,65,0.00,,---,0.00,0.00,VWS V14.00,2013-01-27 11:40:00,
2013-01-27 05:42:00,28.0,17.8,29.97,SSE,158,5.0,8.0,65,0.00,,---,0.00,0.00,VWS V14.00,2013-01-27 11:42:00,
2013-01-27 05:45:00,26.0,15.9,29.99,WNW,292,4.0,10.0,65,0.00,,---,0.00,0.00,VWS V14.00,2013-01-27 11:45:00,
2013-01-27 05:47:00,28.0,17.4,29.97,NNE,22,4.0,10.0,64,0.00,,---,0.00,0.00,VWS V14.00,2013-01-27 11:47:00,
2013-01-27 05:50:00,27.0,16.8,29.99,ENE,68,4.0,12.0,65,0.00,,---,0.00,0.00,VWS V14.00,2013-01-27 11:50:00,
2013-01-27 05:52:00,28.0,17.4,29.97,West,270,10.0,12.0,64,0.00,,---,0.00,0.00,VWS V14.00,2013-01-27 11:52:00,
2013-01-27 05:55:00,27.0,16.8,29.99,SE,135,3.0,10.0,65,0.00,,---,0.00,0.00,VWS V14.00,2013-01-27 11:55:00,
2013-01-27 05:57:00,28.0,17.4,29.97,SE,135,3.0,7.0,64,0.00,,---,0.00,0.00,VWS V14.00,2013-01-27 11:57:00,
2013-01-27 06:00:00,27.0,16.8,29.98,ESE,112,7.0,12.0,65,0.00,,---,0.00,0.00,VWS V14.00,2013-01-27 12:00:00,
2013-01-27 06:02:00,28.0,17.4,29.97,North,0,3.0,10.0,64,0.00,,---,0.00,0.00,VWS V14.00,2013-01-27 12:02:00,
2013-01-27 06:05:00,27.0,16.8,29.98,South,180,5.0,10.0,65,0.00,,---,0.00,0.00,VWS V14.00,2013-01-27 12:05:00,
2013-01-27 06:07:00,28.0,17.4,29.97,SE,135,2.0,6.0,64,0.00,,---,0.00,0.00,VWS V14.00,2013-01-27 12:07:00,
2013-01-27 06:10:00,27.0,16.8,29.98,ENE,68,3.0,8.0,65,0.00,,---,0.00,0.00,VWS V14.00,2013-01-27 12:10:00,
2013-01-27 06:12:00,28.0,17.4,29.97,East,90,5.0,10.0,64,0.00,,---,0.00,0.00,VWS V14.00,2013-01-27 12:12:00,
2013-01-27 06:15:00,27.0,16.8,29.98,East,90,3.0,10.0,65,0.00,,---,0.00,0.00,VWS V14.00,2013-01-27 12:15:00,
2013-01-27 06:17:00,28.0,17.4,29.97,SE,135,5.0,9.0,64,0.00,,---,0.00,0.00,VWS V14.00,2013-01-27 12:17:00,
2013-01-27 06:20:00,27.0,16.8,29.98,NNE,22,4.0,10.0,65,0.00,,---,0.00,0.00,VWS V14.00,2013-01-27 12:20:00,
2013-01-27 06:22:00,29.0,18.4,29.97,South,180,6.0,8.0,64,0.00,,---,0.00,0.00,VWS V14.00,2013-01-27 12:22:00,
2013-01-27 06:25:00,27.0,16.8,29.98,WNW,292,5.0,10.0,65,0.00,,---,0.00,0.00,VWS V14.00,2013-01-27 12:25:00,
2013-01-27 06:27:00,29.0,18.4,29.97,ESE,112,3.0,9.0,64,0.00,,---,0.00,0.00,VWS V14.00,2013-01-27 12:27:00,
2013-01-27 06:30:00,27.0,16.8,29.98,NNE,22,4.0,9.0,65,0.00,,---,0.00,0.00,VWS V14.00,2013-01-27 12:30:00,
2013-01-27 06:32:00,29.0,18.4,29.97,NE,45,4.0,8.0,64,0.00,,---,0.00,0.00,VWS V14.00,2013-01-27 12:32:00,
2013-01-27 06:35:00,27.0,16.8,29.98,SSW,202,4.0,13.0,65,0.00,,---,0.00,0.00,VWS V14.00,2013-01-27 12:35:00,
2013-01-27 06:37:00,29.0,18.4,29.97,SE,135,4.0,15.0,64,0.00,,---,0.00,0.00,VWS V14.00,2013-01-27 12:37:00,
2013-01-27 06:40:00,28.0,17.8,29.98,ESE,112,6.0,9.0,65,0.00,,---,0.00,0.00,VWS V14.00,2013-01-27 12:40:00,
2013-01-27 06:42:00,29.0,18.0,29.97,East,90,4.0,7.0,63,0.00,,---,0.00,0.00,VWS V14.00,2013-01-27 12:42:00,
2013-01-27 06:45:00,28.0,17.8,29.97,NW,315,3.0,8.0,65,0.00,,---,0.00,0.00,VWS V14.00,2013-01-27 12:45:00,
2013-01-27 06:47:00,29.0,18.0,29.97,WSW,248,5.0,10.0,63,0.00,,---,0.00,0.00,VWS V14.00,2013-01-27 12:47:00,
2013-01-27 06:50:00,28.0,17.4,29.97,SSE,158,8.0,9.0,64,0.00,,---,0.00,0.00,VWS V14.00,2013-01-27 12:50:00,
2013-01-27 06:52:00,29.0,18.0,29.97,East,90,3.0,7.0,63,0.00,,---,0.00,0.00,VWS V14.00,2013-01-27 12:52:00,
2013-01-27 06:55:00,28.0,17.4,29.98,NNE,22,5.0,11.0,64,0.00,,---,0.00,0.00,VWS V14.00,2013-01-27 12:55:00,
2013-01-27 06:57:00,29.0,18.0,29.97,SW,225,13.0,13.0,63,0.00,,---,0.00,0.00,VWS V14.00,2013-01-27 12:57:00,
2013-01-27 07:00:00,28.0,17.4,29.97,SE,135,3.0,12.0,64,0.00,,---,0.00,0.00,VWS V14.00,2013-01-27 13:00:00,
2013-01-27 07:02:00,29.0,18.0,29.97,East,90,3.0,11.0,63,0.00,,---,0.00,0.00,VWS V14.00,2013-01-27 13:02:00,
2013-01-27 07:05:00,28.0,17.4,29.98,East,90,4.0,9.0,64,0.00,,---,0.00,0.00,VWS V14.00,2013-01-27 13:05:00,
2013-01-27 07:07:00,30.0,18.6,29.97,ENE,68,6.0,7.0,62,0.00,,---,0.00,0.00,VWS V14.00,2013-01-27 13:07:00,
2013-01-27 07:10:00,28.0,17.4,29.97,NNE,22,3.0,10.0,64,0.00,,---,0.00,0.00,VWS V14.00,2013-01-27 13:10:00,
2013-01-27 07:12:00,30.0,18.6,29.96,SSW,202,4.0,10.0,62,0.00,,---,0.00,0.00,VWS V14.00,2013-01-27 13:12:00,
2013-01-27 07:15:00,28.0,17.4,29.97,NE,45,4.0,12.0,64,0.00,,---,0.00,0.00,VWS V14.00,2013-01-27 13:15:00,
2013-01-27 07:17:00,30.0,18.6,29.97,East,90,4.0,7.0,62,0.00,,---,0.00,0.00,VWS V14.00,2013-01-27 13:17:00,
2013-01-27 07:20:00,28.0,17.4,29.97,SE,135,4.0,12.0,64,0.00,,---,0.00,0.00,VWS V14.00,2013-01-27 13:20:00,
2013-01-27 07:22:00,30.0,18.6,29.97,SE,135,8.0,10.0,62,0.00,,---,0.00,0.00,VWS V14.00,2013-01-27 13:22:00,
2013-01-27 07:25:00,29.0,18.4,29.97,East,90,5.0,10.0,64,0.00,,---,0.00,0.00,VWS V14.00,2013-01-27 13:25:00,
2013-01-27 07:27:00,30.0,18.6,29.97,SE,135,3.0,8.0,62,0.00,,---,0.00,0.00,VWS V14.00,2013-01-27 13:27:00,
2013-01-27 07:30:00,29.0,18.4,29.97,SSE,158,2.0,9.0,64,0.00,,---,0.00,0.00,VWS V14.00,2013-01-27 13:30:00,
2013-01-27 07:32:00,30.0,18.2,29.97,ESE,112,7.0,8.0,61,0.00,,---,0.00,0.00,VWS V14.00,2013-01-27 13:32:00,
2013-01-27 07:35:00,29.0,18.4,29.97,ESE,112,4.0,9.0,64,0.00,,---,0.00,0.00,VWS V14.00,2013-01-27 13:35:00,
2013-01-27 07:37:00,30.0,18.2,29.97,NW,315,6.0,11.0,61,0.00,,---,0.00,0.00,VWS V14.00,2013-01-27 13:37:00,
2013-01-27 07:40:00,29.0,18.4,29.97,ESE,112,5.0,9.0,64,0.00,,---,0.00,0.00,VWS V14.00,2013-01-27 13:40:00,
2013-01-27 07:42:00,31.0,19.1,29.97,NNW,338,4.0,9.0,61,0.00,,---,0.00,0.00,VWS V14.00,2013-01-27 13:42:00,
2013-01-27 07:45:00,29.0,18.0,29.97,NE,45,4.0,15.0,63,0.00,,---,0.00,0.00,VWS V14.00,2013-01-27 13:45:00,
2013-01-27 07:47:00,31.0,19.1,29.96,NW,315,6.0,10.0,61,0.00,,---,0.00,1.00,VWS V14.00,2013-01-27 13:47:00,
2013-01-27 07:50:00,29.0,18.0,29.97,NE,45,5.0,10.0,63,0.00,,---,0.00,0.00,VWS V14.00,2013-01-27 13:50:00,
2013-01-27 07:52:00,31.0,19.1,29.96,ENE,68,6.0,9.0,61,0.00,,---,0.00,1.00,VWS V14.00,2013-01-27 13:52:00,
2013-01-27 07:55:00,29.0,18.0,29.97,ESE,112,4.0,10.0,63,0.00,,---,0.00,0.00,VWS V14.00,2013-01-27 13:55:00,
2013-01-27 07:57:00,31.0,19.1,29.96,NW,315,4.0,9.0,61,0.00,,---,0.00,1.00,VWS V14.00,2013-01-27 13:57:00,
2013-01-27 08:00:00,29.0,18.0,29.97,NE,45,4.0,7.0,63,0.00,,---,0.00,0.00,VWS V14.00,2013-01-27 14:00:00,
2013-01-27 08:02:00,31.0,19.1,29.96,East,90,3.0,8.0,61,0.00,,---,0.00,1.00,VWS V14.00,2013-01-27 14:02:00,
2013-01-27 08:05:00,29.0,18.0,29.97,North,0,4.0,13.0,63,0.00,,---,0.00,0.00,VWS V14.00,2013-01-27 14:05:00,
2013-01-27 08:07:00,31.0,19.1,29.96,WNW,292,4.0,6.0,61,0.00,,---,0.00,1.00,VWS V14.00,2013-01-27 14:07:00,
2013-01-27 08:10:00,30.0,19.0,29.97,South,180,4.0,11.0,63,0.00,,---,0.00,0.00,VWS V14.00,2013-01-27 14:10:00,
2013-01-27 08:12:00,31.0,19.1,29.96,SSE,158,5.0,10.0,61,0.00,,---,0.00,2.00,VWS V14.00,2013-01-27 14:12:00,
2013-01-27 08:15:00,30.0,18.6,29.97,East,90,8.0,13.0,62,0.00,,---,0.00,0.00,VWS V14.00,2013-01-27 14:15:00,
2013-01-27 08:17:00,31.0,18.8,29.96,North,0,4.0,8.0,60,0.00,,---,0.00,2.00,VWS V14.00,2013-01-27 14:17:00,
2013-01-27 08:20:00,30.0,18.6,29.97,East,90,3.0,11.0,62,0.00,,---,0.00,0.00,VWS V14.00,2013-01-27 14:20:00,
2013-01-27 08:25:00,30.0,18.6,29.97,ENE,68,4.0,12.0,62,0.00,,---,0.00,0.00,VWS V14.00,2013-01-27 14:25:00,
2013-01-27 08:30:00,30.0,18.6,29.97,South,180,4.0,10.0,62,0.00,,---,0.00,0.00,VWS V14.00,2013-01-27 14:30:00,
2013-01-27 08:35:00,30.0,18.6,29.97,East,90,6.0,10.0,62,0.00,,---,0.00,0.00,VWS V14.00,2013-01-27 14:35:00,
2013-01-27 08:40:00,30.0,18.2,29.97,SE,135,3.0,11.0,61,0.00,,---,0.00,0.00,VWS V14.00,2013-01-27 14:40:00,
2013-01-27 08:45:00,31.0,19.1,29.97,North,0,4.0,14.0,61,0.00,,---,0.00,0.00,VWS V14.00,2013-01-27 14:45:00,
2013-01-27 08:50:00,30.0,18.2,29.96,SE,135,3.0,10.0,61,0.00,,---,0.00,1.00,VWS V14.00,2013-01-27 14:50:00,
2013-01-27 08:55:00,31.0,19.1,29.96,NW,315,4.0,10.0,61,0.00,,---,0.00,1.00,VWS V14.00,2013-01-27 14:55:00,
2013-01-27 09:00:00,31.0,19.1,29.96,North,0,8.0,9.0,61,0.00,,---,0.00,1.00,VWS V14.00,2013-01-27 15:00:00,
2013-01-27 09:05:00,31.0,19.1,29.96,SSW,202,8.0,10.0,61,0.00,,---,0.00,1.00,VWS V14.00,2013-01-27 15:05:00,
2013-01-27 09:10:00,31.0,19.1,29.96,SE,135,3.0,14.0,61,0.00,,---,0.00,1.00,VWS V14.00,2013-01-27 15:10:00,
2013-01-27 09:15:00,31.0,19.1,29.96,South,180,8.0,11.0,61,0.00,,---,0.00,1.00,VWS V14.00,2013-01-27 15:15:00,
2013-01-27 09:20:00,31.0,19.1,29.96,NE,45,5.0,13.0,61,0.00,,---,0.00,2.00,VWS V14.00,2013-01-27 15:20:00,